AFR69Q LFPG-EDDH

Flight info

Callsign AFR69Q
Flight time 1h 16m
Altitude 38000
Route NURMO DCT CMB DCT VEKIN DCT ADUTO N873 VICOT/N0449F370 DCT PABCO M105 REVLA/N0446F390 M105 RIBSO RIBSO3P
Aircraft A20N/M-SDE2E3FGHIRWXY/LB1

Departure

Time 2026-04-25 08:54
Airport Charles de Gaulle International Airport (LFPG)

Arrival

Time 2026-04-25 10:10
Airport Hamburg Helmut Schmidt Airport (EDDH)
Time Latitude Longitude Altitude Speed Heading
2026-04-25 08:07 49.00251 2.58407 361 ft 0 kts 84°
2026-04-25 08:28 49.00250 2.58385 365 ft 2 kts 84°
2026-04-25 08:28 49.00248 2.58360 360 ft 2 kts 85°
2026-04-25 08:28 49.00247 2.58335 364 ft 2 kts 86°
2026-04-25 08:28 49.00250 2.58310 360 ft 2 kts 124°
2026-04-25 08:29 49.00263 2.58297 365 ft 2 kts 169°
2026-04-25 08:29 49.00280 2.58294 357 ft 2 kts 175°
2026-04-25 08:29 49.00296 2.58292 360 ft 2 kts 176°
2026-04-25 08:29 49.00301 2.58292 359 ft 0 kts 176°
2026-04-25 08:33 49.00292 2.58293 361 ft 5 kts 176°
2026-04-25 08:33 49.00233 2.58300 359 ft 7 kts 175°
2026-04-25 08:33 49.00188 2.58305 357 ft 6 kts 175°
2026-04-25 08:34 49.00148 2.58310 357 ft 5 kts 175°
2026-04-25 08:34 49.00139 2.58311 357 ft 1 kts 175°
2026-04-25 08:34 49.00132 2.58312 357 ft 2 kts 175°
2026-04-25 08:34 49.00101 2.58316 363 ft 6 kts 175°
2026-04-25 08:35 49.00072 2.58320 359 ft 1 kts 174°
2026-04-25 08:35 49.00050 2.58321 357 ft 8 kts 182°
2026-04-25 08:35 49.00011 2.58264 362 ft 9 kts 257°
2026-04-25 08:35 49.00002 2.58134 364 ft 18 kts 264°
2026-04-25 08:36 48.99990 2.57905 363 ft 21 kts 265°
2026-04-25 08:36 48.99979 2.57726 357 ft 14 kts 265°
2026-04-25 08:36 48.99972 2.57579 361 ft 14 kts 265°
2026-04-25 08:36 48.99965 2.57440 357 ft 13 kts 265°
2026-04-25 08:37 48.99957 2.57294 361 ft 17 kts 265°
2026-04-25 08:37 48.99947 2.57099 363 ft 21 kts 265°
2026-04-25 08:37 48.99932 2.56850 357 ft 24 kts 265°
2026-04-25 08:37 48.99919 2.56627 360 ft 20 kts 266°
2026-04-25 08:38 48.99909 2.56404 362 ft 22 kts 265°
2026-04-25 08:38 48.99896 2.56172 357 ft 20 kts 264°
2026-04-25 08:38 48.99890 2.55957 357 ft 21 kts 278°
2026-04-25 08:38 48.99925 2.55754 362 ft 17 kts 291°
2026-04-25 08:39 49.00018 2.55659 357 ft 16 kts 343°
2026-04-25 08:39 49.00127 2.55611 361 ft 16 kts 346°
2026-04-25 08:39 49.00233 2.55567 357 ft 16 kts 344°
2026-04-25 08:39 49.00349 2.55513 361 ft 18 kts 343°
2026-04-25 08:40 49.00477 2.55458 360 ft 19 kts 343°
2026-04-25 08:40 49.00607 2.55402 365 ft 21 kts 344°
2026-04-25 08:40 49.00757 2.55338 362 ft 24 kts 344°
2026-04-25 08:40 49.00922 2.55265 365 ft 24 kts 345°
2026-04-25 08:41 49.01070 2.55200 362 ft 22 kts 343°
2026-04-25 08:41 49.01193 2.55152 360 ft 13 kts 11°
2026-04-25 08:41 49.01288 2.55208 360 ft 16 kts 20°
2026-04-25 08:41 49.01408 2.55193 361 ft 19 kts 347°
2026-04-25 08:42 49.01550 2.55165 364 ft 22 kts 355°
2026-04-25 08:42 49.01683 2.55145 359 ft 18 kts 353°
2026-04-25 08:42 49.01818 2.55129 361 ft 21 kts 346°
2026-04-25 08:42 49.01853 2.54944 357 ft 18 kts 265°
2026-04-25 08:43 49.01847 2.54855 357 ft 10 kts 264°
2026-04-25 08:43 49.01841 2.54719 361 ft 15 kts 266°
2026-04-25 08:43 49.01832 2.54540 357 ft 15 kts 264°
2026-04-25 08:43 49.01823 2.54369 357 ft 15 kts 266°
2026-04-25 08:44 49.01817 2.54250 364 ft 8 kts 265°
2026-04-25 08:44 49.01815 2.54217 360 ft 3 kts 265°
2026-04-25 08:44 49.01814 2.54201 363 ft 0 kts 265°
2026-04-25 08:46 49.01813 2.54184 360 ft 5 kts 265°
2026-04-25 08:46 49.01808 2.54100 360 ft 8 kts 266°
2026-04-25 08:46 49.01805 2.54023 357 ft 7 kts 265°
2026-04-25 08:47 49.01801 2.53938 361 ft 12 kts 265°
2026-04-25 08:47 49.01792 2.53791 363 ft 18 kts 265°
2026-04-25 08:47 49.01781 2.53594 357 ft 14 kts 265°
2026-04-25 08:47 49.01774 2.53423 365 ft 18 kts 263°
2026-04-25 08:48 49.01761 2.53252 358 ft 17 kts 265°
2026-04-25 08:48 49.01755 2.53105 364 ft 13 kts 266°
2026-04-25 08:48 49.01747 2.52951 362 ft 13 kts 264°
2026-04-25 08:48 49.01737 2.52786 363 ft 18 kts 264°
2026-04-25 08:49 49.01728 2.52606 364 ft 19 kts 265°
2026-04-25 08:49 49.01721 2.52432 360 ft 15 kts 272°
2026-04-25 08:49 49.01801 2.52362 357 ft 18 kts 359°
2026-04-25 08:49 49.01928 2.52350 357 ft 14 kts 355°
2026-04-25 08:50 49.01987 2.52343 360 ft 6 kts 355°
2026-04-25 08:50 49.02006 2.52341 364 ft 0 kts 356°
2026-04-25 08:50 49.02007 2.52340 364 ft 0 kts 356°
2026-04-25 08:51 49.02008 2.52340 364 ft 2 kts 356°
2026-04-25 08:51 49.02060 2.52334 359 ft 13 kts 355°
2026-04-25 08:51 49.02110 2.52344 360 ft 9 kts 38°
2026-04-25 08:51 49.02121 2.52387 361 ft 0 kts 85°
2026-04-25 08:53 49.02135 2.52655 361 ft 58 kts 85°
2026-04-25 08:53 49.02186 2.53577 357 ft 116 kts 85°
2026-04-25 08:53 49.02263 2.55035 374 ft 160 kts 85°
2026-04-25 08:53 49.02339 2.56712 889 ft 158 kts 85°
2026-04-25 08:54 49.02402 2.58394 1440 ft 159 kts 85°
2026-04-25 08:54 49.02472 2.60176 1890 ft 182 kts 86°
2026-04-25 08:54 49.02557 2.62215 2310 ft 204 kts 86°
2026-04-25 08:54 49.02650 2.64539 2680 ft 236 kts 85°
2026-04-25 08:55 49.02778 2.67176 3079 ft 261 kts 84°
2026-04-25 08:55 49.02961 2.69989 3770 ft 270 kts 84°
2026-04-25 08:55 49.03252 2.72824 4681 ft 272 kts 76°
2026-04-25 08:55 49.04041 2.75435 5624 ft 273 kts 51°
2026-04-25 08:56 49.05568 2.77099 6549 ft 275 kts 18°
2026-04-25 08:56 49.07459 2.77461 7452 ft 276 kts 360°
2026-04-25 08:56 49.09382 2.77353 8383 ft 277 kts 357°
2026-04-25 08:56 49.11314 2.77211 9283 ft 279 kts 357°
2026-04-25 08:57 49.13245 2.77102 9941 ft 282 kts 358°
2026-04-25 08:57 49.15261 2.77018 10567 ft 293 kts 359°
2026-04-25 08:57 49.17344 2.76952 10922 ft 314 kts 359°
2026-04-25 08:57 49.19602 2.76895 11245 ft 334 kts 359°
2026-04-25 08:58 49.21992 2.76842 11609 ft 352 kts 359°
2026-04-25 08:58 49.24482 2.76788 12236 ft 362 kts 359°
2026-04-25 08:58 49.27023 2.76735 12988 ft 366 kts 359°
2026-04-25 08:58 49.29585 2.76681 13758 ft 370 kts 359°
2026-04-25 08:59 49.32176 2.76627 14468 ft 374 kts 358°
2026-04-25 08:59 49.34765 2.76574 15112 ft 378 kts 358°
2026-04-25 08:59 49.37441 2.76519 15775 ft 382 kts 358°
2026-04-25 08:59 49.40080 2.76463 16429 ft 386 kts 358°
2026-04-25 09:00 49.42784 2.76388 17098 ft 390 kts 357°
2026-04-25 09:00 49.45512 2.76312 17744 ft 394 kts 357°
2026-04-25 09:00 49.48264 2.76242 18395 ft 398 kts 357°
2026-04-25 09:00 49.51054 2.76176 18982 ft 402 kts 357°
2026-04-25 09:01 49.53863 2.76114 19554 ft 405 kts 356°
2026-04-25 09:01 49.56687 2.76052 20121 ft 408 kts 356°
2026-04-25 09:01 49.59537 2.75992 20683 ft 411 kts 356°
2026-04-25 09:01 49.62404 2.75931 21213 ft 413 kts 356°
2026-04-25 09:02 49.65290 2.75871 21755 ft 416 kts 356°
2026-04-25 09:02 49.68201 2.75810 22279 ft 419 kts 356°
2026-04-25 09:02 49.71130 2.75748 22800 ft 422 kts 356°
2026-04-25 09:02 49.74072 2.75687 23333 ft 425 kts 356°
2026-04-25 09:03 49.77045 2.75624 23839 ft 428 kts 356°
2026-04-25 09:03 49.80030 2.75573 24259 ft 432 kts 358°
2026-04-25 09:03 49.82986 2.76194 24651 ft 441 kts 13°
2026-04-25 09:03 49.85853 2.77985 25079 ft 448 kts 24°
2026-04-25 09:04 49.88564 2.80403 25499 ft 452 kts 29°
2026-04-25 09:04 49.91199 2.83119 25914 ft 456 kts 31°
2026-04-25 09:04 49.93811 2.85929 26309 ft 458 kts 31°
2026-04-25 09:04 49.96453 2.88753 26712 ft 460 kts 31°
2026-04-25 09:05 49.99113 2.91529 27085 ft 462 kts 30°
2026-04-25 09:05 50.01810 2.94276 27448 ft 464 kts 29°
2026-04-25 09:05 50.04534 2.97001 27811 ft 466 kts 29°
2026-04-25 09:05 50.07271 2.99712 28289 ft 465 kts 28°
2026-04-25 09:06 50.09997 3.02403 28844 ft 463 kts 28°
2026-04-25 09:06 50.12716 3.05086 29352 ft 462 kts 28°
2026-04-25 09:06 50.15427 3.07764 29842 ft 461 kts 28°
2026-04-25 09:06 50.18120 3.10432 30380 ft 458 kts 28°
2026-04-25 09:07 50.20807 3.13097 30776 ft 457 kts 28°
2026-04-25 09:07 50.23580 3.15472 31129 ft 453 kts 22°
2026-04-25 09:07 50.26384 3.17572 31455 ft 453 kts 21°
2026-04-25 09:07 50.29243 3.19637 31801 ft 452 kts 20°
2026-04-25 09:08 50.32108 3.21661 32143 ft 452 kts 20°
2026-04-25 09:08 50.34973 3.23666 32534 ft 450 kts 20°
2026-04-25 09:08 50.37815 3.25651 33032 ft 446 kts 20°
2026-04-25 09:08 50.40643 3.27647 33365 ft 445 kts 21°
2026-04-25 09:09 50.43439 3.29730 33653 ft 446 kts 22°
2026-04-25 09:09 50.46221 3.31884 33943 ft 446 kts 23°
2026-04-25 09:09 50.48999 3.34075 34231 ft 446 kts 23°
2026-04-25 09:09 50.51773 3.36253 34476 ft 445 kts 22°
2026-04-25 09:10 50.54582 3.38318 34716 ft 444 kts 21°
2026-04-25 09:10 50.57402 3.40288 34915 ft 444 kts 20°
2026-04-25 09:10 50.60241 3.42225 35156 ft 444 kts 20°
2026-04-25 09:10 50.63082 3.44151 35384 ft 444 kts 20°
2026-04-25 09:11 50.68752 3.48015 35809 ft 443 kts 20°
2026-04-25 09:11 50.71542 3.49934 36003 ft 444 kts 20°
2026-04-25 09:11 50.74374 3.51891 36199 ft 444 kts 20°
2026-04-25 09:12 50.77208 3.53855 36383 ft 444 kts 20°
2026-04-25 09:12 50.80040 3.55823 36564 ft 444 kts 20°
2026-04-25 09:12 50.82869 3.57792 36760 ft 444 kts 20°
2026-04-25 09:12 50.85669 3.59744 36950 ft 444 kts 20°
2026-04-25 09:13 50.88530 3.61740 37125 ft 444 kts 20°
2026-04-25 09:13 50.91318 3.63691 37276 ft 444 kts 20°
2026-04-25 09:13 50.94136 3.65688 37433 ft 444 kts 21°
2026-04-25 09:13 50.96950 3.67703 37597 ft 444 kts 21°
2026-04-25 09:14 50.99761 3.69727 37749 ft 444 kts 21°
2026-04-25 09:14 51.02574 3.71756 37892 ft 444 kts 21°
2026-04-25 09:14 51.05383 3.73784 38039 ft 444 kts 21°
2026-04-25 09:14 51.08195 3.75816 38181 ft 444 kts 21°
2026-04-25 09:15 51.13836 3.79894 38230 ft 445 kts 21°
2026-04-25 09:15 51.19453 3.83965 38222 ft 442 kts 21°
2026-04-25 09:16 51.25047 3.88030 38220 ft 442 kts 21°
2026-04-25 09:16 51.30640 3.92118 38220 ft 442 kts 21°
2026-04-25 09:17 51.38984 3.98242 38216 ft 441 kts 21°
2026-04-25 09:18 51.44563 4.02367 38210 ft 442 kts 23°
2026-04-25 09:18 51.49648 4.07993 38213 ft 449 kts 40°
2026-04-25 09:19 51.54015 4.15228 38210 ft 451 kts 44°
2026-04-25 09:19 51.58175 4.22702 38212 ft 452 kts 45°
2026-04-25 09:20 51.62347 4.30293 38212 ft 452 kts 45°
2026-04-25 09:20 51.66521 4.37853 38216 ft 452 kts 44°
2026-04-25 09:21 51.70713 4.45429 38217 ft 452 kts 44°
2026-04-25 09:21 51.74899 4.53006 38217 ft 452 kts 44°
2026-04-25 09:22 51.79079 4.60594 38218 ft 452 kts 44°
2026-04-25 09:22 51.83225 4.68147 38216 ft 452 kts 44°
2026-04-25 09:23 51.87392 4.75761 38223 ft 452 kts 44°
2026-04-25 09:23 51.91557 4.83395 38225 ft 452 kts 44°
2026-04-25 09:24 51.95721 4.91050 38226 ft 452 kts 44°
2026-04-25 09:24 51.99871 4.98705 38220 ft 452 kts 44°
2026-04-25 09:25 52.04020 5.06377 38218 ft 452 kts 44°
2026-04-25 09:25 52.08172 5.14080 38220 ft 452 kts 44°
2026-04-25 09:26 52.12313 5.21786 38213 ft 452 kts 44°
2026-04-25 09:26 52.16421 5.29456 38213 ft 452 kts 44°
2026-04-25 09:27 52.20551 5.37190 38215 ft 452 kts 44°
2026-04-25 09:27 52.24682 5.44948 38225 ft 453 kts 44°
2026-04-25 09:28 52.28802 5.52712 38208 ft 452 kts 44°
2026-04-25 09:28 52.32918 5.60491 38208 ft 452 kts 44°
2026-04-25 09:29 52.37029 5.68285 38207 ft 452 kts 44°
2026-04-25 09:29 52.41138 5.76098 38203 ft 452 kts 44°
2026-04-25 09:30 52.45207 5.83862 38206 ft 452 kts 44°
2026-04-25 09:30 52.49299 5.91692 38213 ft 452 kts 44°
2026-04-25 09:31 52.53388 5.99541 38222 ft 452 kts 44°
2026-04-25 09:31 52.57469 6.07401 38197 ft 451 kts 44°
2026-04-25 09:32 52.61536 6.15257 38222 ft 451 kts 44°
2026-04-25 09:32 52.65602 6.23135 38194 ft 450 kts 44°
2026-04-25 09:33 52.69625 6.30957 38192 ft 450 kts 44°
2026-04-25 09:33 52.73669 6.38842 38194 ft 450 kts 44°
2026-04-25 09:34 52.77717 6.46758 38194 ft 450 kts 44°
2026-04-25 09:34 52.81756 6.54685 38189 ft 450 kts 44°
2026-04-25 09:35 52.85787 6.62618 38181 ft 450 kts 44°
2026-04-25 09:35 52.89812 6.70567 38181 ft 451 kts 44°
2026-04-25 09:36 52.93837 6.78540 38188 ft 451 kts 44°
2026-04-25 09:36 52.97856 6.86529 38185 ft 451 kts 44°
2026-04-25 09:37 53.01844 6.94479 38183 ft 451 kts 44°
2026-04-25 09:37 53.05851 7.02495 38184 ft 451 kts 44°
2026-04-25 09:38 53.09862 7.10540 38180 ft 451 kts 44°
2026-04-25 09:38 53.13458 7.19191 38164 ft 462 kts 58°
2026-04-25 09:39 53.15822 7.29250 38164 ft 469 kts 65°
2026-04-25 09:39 53.17524 7.37848 38162 ft 470 kts 67°
2026-04-25 09:40 53.20807 7.55137 38167 ft 470 kts 67°
2026-04-25 09:40 53.22797 7.65532 38162 ft 470 kts 67°
2026-04-25 09:41 53.24461 7.74247 38160 ft 470 kts 67°
2026-04-25 09:41 53.26434 7.84599 38157 ft 471 kts 67°
2026-04-25 09:42 53.28416 7.95032 38107 ft 470 kts 67°
2026-04-25 09:42 53.29402 8.00240 37626 ft 472 kts 67°
2026-04-25 09:42 53.30408 8.05542 36286 ft 488 kts 67°
2026-04-25 09:43 53.31452 8.11037 35306 ft 497 kts 67°
2026-04-25 09:43 53.32471 8.16541 34942 ft 492 kts 68°
2026-04-25 09:43 53.33455 8.21992 34538 ft 487 kts 68°
2026-04-25 09:43 53.34484 8.27360 34212 ft 478 kts 64°
2026-04-25 09:44 53.35689 8.32513 33591 ft 475 kts 61°
2026-04-25 09:44 53.36986 8.37622 32753 ft 479 kts 61°
2026-04-25 09:44 53.38285 8.42698 31951 ft 480 kts 61°
2026-04-25 09:44 53.39571 8.47861 30969 ft 481 kts 62°
2026-04-25 09:45 53.40868 8.53032 29885 ft 481 kts 61°
2026-04-25 09:45 53.42231 8.58150 28609 ft 482 kts 60°
2026-04-25 09:45 53.43636 8.63278 27317 ft 485 kts 60°
2026-04-25 09:45 53.45061 8.68442 25908 ft 491 kts 60°
2026-04-25 09:46 53.46495 8.73660 24582 ft 494 kts 61°
2026-04-25 09:46 53.47925 8.78909 23320 ft 495 kts 61°
2026-04-25 09:46 53.49340 8.84154 22126 ft 490 kts 62°
2026-04-25 09:46 53.50734 8.89365 21112 ft 483 kts 62°
2026-04-25 09:47 53.52098 8.94477 20364 ft 477 kts 61°
2026-04-25 09:47 53.53740 8.99186 20003 ft 457 kts 48°
2026-04-25 09:47 53.55842 9.02932 19783 ft 440 kts 36°
2026-04-25 09:47 53.58209 9.06128 19076 ft 435 kts 32°
2026-04-25 09:48 53.60700 9.09205 17974 ft 442 kts 31°
2026-04-25 09:48 53.63167 9.12180 17056 ft 441 kts 30°
2026-04-25 09:48 53.65653 9.15170 16021 ft 435 kts 30°
2026-04-25 09:48 53.68109 9.18125 14952 ft 429 kts 30°
2026-04-25 09:49 53.70522 9.21030 13978 ft 423 kts 30°
2026-04-25 09:49 53.72864 9.23858 13487 ft 403 kts 30°
2026-04-25 09:49 53.75085 9.26549 13099 ft 383 kts 30°
2026-04-25 09:49 53.77200 9.29111 12767 ft 364 kts 29°
2026-04-25 09:50 53.79146 9.31598 12416 ft 351 kts 34°
2026-04-25 09:50 53.80770 9.34666 11853 ft 353 kts 51°
2026-04-25 09:50 53.81797 9.38460 11216 ft 358 kts 69°
2026-04-25 09:50 53.82378 9.42537 10693 ft 353 kts 73°
2026-04-25 09:51 53.82852 9.46561 10271 ft 343 kts 73°
2026-04-25 09:51 53.83303 9.50467 9836 ft 334 kts 73°
2026-04-25 09:51 53.83746 9.54258 9523 ft 321 kts 73°
2026-04-25 09:51 53.84176 9.57915 9260 ft 312 kts 73°
2026-04-25 09:52 53.84600 9.61481 8986 ft 306 kts 72°
2026-04-25 09:52 53.85016 9.64970 8790 ft 297 kts 72°
2026-04-25 09:52 53.85413 9.68327 8730 ft 284 kts 72°
2026-04-25 09:52 53.85798 9.71568 8537 ft 278 kts 72°
2026-04-25 09:53 53.86177 9.74741 8678 ft 280 kts 72°
2026-04-25 09:53 53.86559 9.78006 8761 ft 284 kts 75°
2026-04-25 09:53 53.86647 9.81380 8592 ft 289 kts 89°
2026-04-25 09:53 53.86455 9.84765 8337 ft 289 kts 92°
2026-04-25 09:54 53.86207 9.88138 8094 ft 288 kts 93°
2026-04-25 09:54 53.85956 9.91498 7834 ft 287 kts 93°
2026-04-25 09:54 53.85710 9.94841 7577 ft 285 kts 93°
2026-04-25 09:54 53.85468 9.98172 7371 ft 283 kts 93°
2026-04-25 09:55 53.85229 10.01497 7646 ft 287 kts 93°
2026-04-25 09:55 53.84986 10.04870 8378 ft 291 kts 93°
2026-04-25 09:55 53.84741 10.08265 8422 ft 289 kts 93°
2026-04-25 09:55 53.84497 10.11633 8196 ft 287 kts 93°
2026-04-25 09:56 53.84342 10.14995 8062 ft 284 kts 84°
2026-04-25 09:56 53.84550 10.18223 7932 ft 277 kts 69°
2026-04-25 09:56 53.85192 10.21239 7812 ft 267 kts 54°
2026-04-25 09:56 53.86186 10.23837 7682 ft 260 kts 43°
2026-04-25 09:57 53.87322 10.26202 7664 ft 258 kts 41°
2026-04-25 09:57 53.88479 10.28523 7657 ft 258 kts 41°
2026-04-25 09:57 53.89639 10.30849 7653 ft 258 kts 41°
2026-04-25 09:57 53.90797 10.33183 7632 ft 259 kts 41°
2026-04-25 09:58 53.91956 10.35529 7525 ft 259 kts 41°
2026-04-25 09:58 53.93108 10.37871 7278 ft 258 kts 41°
2026-04-25 09:58 53.94203 10.40278 7030 ft 261 kts 50°
2026-04-25 09:58 53.94883 10.43185 6777 ft 272 kts 75°
2026-04-25 09:59 53.94780 10.46410 6528 ft 279 kts 105°
2026-04-25 09:59 53.93828 10.49258 6276 ft 279 kts 136°
2026-04-25 09:59 53.92254 10.51069 6061 ft 270 kts 166°
2026-04-25 09:59 53.90473 10.51562 5810 ft 257 kts 192°
2026-04-25 10:00 53.88804 10.50824 5560 ft 242 kts 216°
2026-04-25 10:00 53.87512 10.49163 5311 ft 226 kts 238°
2026-04-25 10:00 53.86593 10.47069 5070 ft 219 kts 242°
2026-04-25 10:00 53.85694 10.45053 4914 ft 209 kts 240°
2026-04-25 10:01 53.84806 10.43157 4768 ft 210 kts 240°
2026-04-25 10:01 53.83862 10.41245 4757 ft 205 kts 238°
2026-04-25 10:01 53.82975 10.39483 4620 ft 191 kts 239°
2026-04-25 10:01 53.82144 10.37806 4353 ft 183 kts 239°
2026-04-25 10:02 53.81334 10.36156 4041 ft 181 kts 239°
2026-04-25 10:02 53.80555 10.34566 3891 ft 169 kts 239°
2026-04-25 10:02 53.79834 10.33093 3780 ft 157 kts 240°
2026-04-25 10:02 53.79166 10.31724 3638 ft 145 kts 241°
2026-04-25 10:03 53.78549 10.30456 3418 ft 137 kts 242°
2026-04-25 10:03 53.77949 10.29215 3100 ft 135 kts 240°
2026-04-25 10:03 53.77353 10.27983 2994 ft 136 kts 240°
2026-04-25 10:03 53.76750 10.26748 2982 ft 137 kts 240°
2026-04-25 10:04 53.76143 10.25508 2985 ft 137 kts 240°
2026-04-25 10:04 53.75536 10.24267 2987 ft 136 kts 240°
2026-04-25 10:04 53.74938 10.23044 2984 ft 135 kts 239°
2026-04-25 10:04 53.74343 10.21827 2990 ft 134 kts 239°
2026-04-25 10:05 53.73749 10.20613 2985 ft 135 kts 239°
2026-04-25 10:05 53.73149 10.19389 2985 ft 136 kts 239°
2026-04-25 10:05 53.72545 10.18159 2898 ft 136 kts 239°
2026-04-25 10:05 53.71946 10.16941 2721 ft 133 kts 238°
2026-04-25 10:06 53.71365 10.15759 2536 ft 131 kts 239°
2026-04-25 10:06 53.70794 10.14596 2343 ft 127 kts 239°
2026-04-25 10:06 53.70229 10.13445 2167 ft 126 kts 238°
2026-04-25 10:06 53.69663 10.12292 1983 ft 127 kts 237°
2026-04-25 10:07 53.69098 10.11140 1807 ft 128 kts 238°
2026-04-25 10:07 53.68533 10.09992 1633 ft 129 kts 237°
2026-04-25 10:07 53.67960 10.08832 1498 ft 129 kts 238°
2026-04-25 10:07 53.67398 10.07673 1331 ft 127 kts 240°
2026-04-25 10:08 53.66835 10.06539 1179 ft 127 kts 237°
2026-04-25 10:08 53.66258 10.05419 1002 ft 126 kts 239°
2026-04-25 10:08 53.65704 10.04260 819 ft 126 kts 239°
2026-04-25 10:08 53.65154 10.03129 624 ft 122 kts 240°
2026-04-25 10:09 53.64609 10.02018 425 ft 123 kts 237°
2026-04-25 10:09 53.64059 10.00916 258 ft 123 kts 237°
2026-04-25 10:09 53.63509 9.99791 101 ft 123 kts 238°
2026-04-25 10:09 53.62981 9.98724 56 ft 109 kts 237°
2026-04-25 10:10 53.62593 9.97924 45 ft 47 kts 231°
2026-04-25 10:10 53.62538 9.97814 44 ft 12 kts 220°
2026-04-25 10:10 53.62462 9.97801 44 ft 8 kts 154°
2026-04-25 10:10 53.62432 9.97860 44 ft 6 kts 112°
2026-04-25 10:11 53.62430 9.97925 44 ft 5 kts 82°
2026-04-25 10:11 53.62439 9.97997 43 ft 10 kts 75°
2026-04-25 10:11 53.62486 9.98141 45 ft 19 kts 53°
2026-04-25 10:11 53.62572 9.98312 45 ft 19 kts 51°
2026-04-25 10:12 53.62634 9.98439 45 ft 11 kts 50°
2026-04-25 10:12 53.62683 9.98538 46 ft 11 kts 50°
2026-04-25 10:12 53.62772 9.98717 46 ft 9 kts 50°
2026-04-25 10:13 53.62812 9.98798 46 ft 9 kts 50°
2026-04-25 10:13 53.62849 9.98875 44 ft 8 kts 50°
2026-04-25 10:13 53.62885 9.98946 46 ft 8 kts 50°
2026-04-25 10:13 53.62918 9.99014 46 ft 7 kts 50°
2026-04-25 10:14 53.62949 9.99075 47 ft 5 kts 50°
2026-04-25 10:14 53.62973 9.99125 47 ft 6 kts 50°
2026-04-25 10:14 53.63000 9.99179 47 ft 8 kts 50°
2026-04-25 10:14 53.63055 9.99295 47 ft 17 kts 52°
2026-04-25 10:15 53.63123 9.99459 49 ft 16 kts 56°
2026-04-25 10:15 53.63191 9.99611 47 ft 16 kts 50°
2026-04-25 10:15 53.63265 9.99744 48 ft 15 kts 43°
2026-04-25 10:15 53.63333 9.99871 48 ft 14 kts 49°
2026-04-25 10:16 53.63394 9.99993 49 ft 13 kts 51°
2026-04-25 10:16 53.63429 10.00109 49 ft 10 kts 97°
2026-04-25 10:16 53.63386 10.00190 49 ft 9 kts 164°
2026-04-25 10:16 53.63326 10.00199 49 ft 8 kts 177°
2026-04-25 10:17 53.63280 10.00226 47 ft 6 kts 114°
2026-04-25 10:17 53.63279 10.00287 49 ft 5 kts 85°
2026-04-25 10:17 53.63282 10.00338 49 ft 2 kts 86°
2026-04-25 10:17 53.63283 10.00360 49 ft 2 kts 86°
2026-04-25 10:18 53.63283 10.00374 49 ft 0 kts 86°
2026-04-25 10:18 53.63283 10.00373 49 ft 0 kts 86°